TimeMDT,TemperatureF,Dew PointF,Humidity,Sea Level PressureIn,VisibilityMPH,Wind Direction,Wind SpeedMPH,Gust SpeedMPH,PrecipitationIn,Events,Conditions,WindDirDegrees,DateUTC
12:53 AM,39.0,33.1,79,29.84,10.0,NNE,6.9,-,0.00,,Overcast,30,2013-10-03 06:53:00
1:13 AM,37.4,33.8,87,29.85,10.0,NNE,8.1,-,N/A,,Overcast,30,2013-10-03 07:13:00
1:53 AM,37.9,33.1,83,29.83,10.0,ENE,5.8,-,N/A,,Overcast,60,2013-10-03 07:53:00
2:53 AM,37.0,34.0,89,29.82,10.0,NNE,13.8,-,N/A,,Overcast,20,2013-10-03 08:53:00
3:07 AM,37.4,33.8,87,29.83,10.0,NNE,13.8,-,N/A,,Overcast,20,2013-10-03 09:07:00
3:53 AM,37.0,34.0,89,29.82,10.0,NNE,11.5,-,N/A,,Overcast,20,2013-10-03 09:53:00
4:53 AM,36.0,34.0,93,29.80,10.0,NNE,19.6,26.5,N/A,,Overcast,30,2013-10-03 10:53:00
5:06 AM,35.6,33.8,93,29.82,10.0,NNE,18.4,28.8,N/A,,Overcast,30,2013-10-03 11:06:00
5:16 AM,35.6,33.8,93,29.82,10.0,NNE,19.6,-,N/A,,Overcast,30,2013-10-03 11:16:00
5:36 AM,35.6,33.8,93,29.82,10.0,NNE,19.6,-,N/A,,Overcast,30,2013-10-03 11:36:00
5:53 AM,34.0,32.0,92,29.80,9.0,NNE,25.3,34.5,0.00,Snow,Light Snow,30,2013-10-03 11:53:00
6:31 AM,33.8,32.0,93,29.82,7.0,NNE,23.0,28.8,0.00,Snow,Light Snow,30,2013-10-03 12:31:00
6:53 AM,34.0,32.0,92,29.82,4.0,NNE,24.2,29.9,0.00,Snow,Light Snow,30,2013-10-03 12:53:00
7:08 AM,33.8,32.0,93,29.82,2.5,NNE,20.7,29.9,0.00,Snow,Light Snow,30,2013-10-03 13:08:00
7:14 AM,33.8,30.2,87,29.82,1.8,NNE,20.7,29.9,0.00,Snow,Light Snow,30,2013-10-03 13:14:00
7:30 AM,33.8,32.0,93,29.82,1.0,NNE,19.6,-,0.01,Snow,Light Snow,20,2013-10-03 13:30:00
7:39 AM,33.8,32.0,93,29.82,1.0,NNE,24.2,-,0.01,Snow,Light Snow,20,2013-10-03 13:39:00
7:53 AM,33.1,32.0,96,29.83,0.8,NNE,24.2,32.2,0.02,Snow,Light Snow,20,2013-10-03 13:53:00
8:18 AM,32.0,30.2,93,29.83,0.5,NNE,27.6,34.5,0.02,Fog-Snow,Snow,20,2013-10-03 14:18:00
8:44 AM,32.0,32.0,100,29.84,0.5,NNE,24.2,33.4,0.03,Fog-Snow,Snow,20,2013-10-03 14:44:00
8:51 AM,32.0,32.0,100,29.85,0.5,NNE,25.3,-,0.04,Fog-Snow,Snow,20,2013-10-03 14:51:00
8:53 AM,32.0,32.0,100,29.87,0.2,NNE,27.6,32.2,0.04,Fog-Snow,Heavy Snow,20,2013-10-03 14:53:00
9:53 AM,32.0,30.9,96,29.91,0.5,NNE,29.9,36.8,0.03,Fog-Snow,Snow,20,2013-10-03 15:53:00
10:53 AM,32.0,30.9,96,29.95,0.2,NNE,27.6,33.4,0.03,Fog,Fog,20,2013-10-03 16:53:00
5:53 PM,32.0,28.0,85,30.19,10.0,NNE,24.2,29.9,N/A,,Overcast,30,2013-10-03 23:53:00
6:53 PM,33.1,27.0,78,30.22,10.0,North,19.6,-,N/A,,Overcast,10,2013-10-04 00:53:00
7:53 PM,32.0,28.0,85,30.26,10.0,North,10.4,-,N/A,,Overcast,350,2013-10-04 01:53:00
8:12 PM,32.0,28.4,87,30.22,1.8,North,23.0,-,0.00,Snow,Light Snow,360,2013-10-04 02:12:00
8:18 PM,30.2,28.4,93,30.22,1.0,North,20.7,-,0.00,Snow,Light Snow,360,2013-10-04 02:18:00
8:33 PM,30.2,30.2,100,30.23,2.5,North,9.2,-,0.00,Snow,Light Snow,350,2013-10-04 02:33:00
8:40 PM,30.2,30.2,100,30.23,6.0,North,10.4,-,0.00,Snow,Light Snow,360,2013-10-04 02:40:00
8:53 PM,30.9,28.9,92,30.30,9.0,NNE,9.2,-,0.00,Snow,Light Snow,30,2013-10-04 02:53:00
9:30 PM,30.2,28.4,93,30.24,9.0,NE,16.1,-,0.00,,Overcast,40,2013-10-04 03:30:00
9:44 PM,30.2,28.4,93,30.24,10.0,NE,17.3,-,0.00,,Overcast,40,2013-10-04 03:44:00
10:53 PM,30.0,28.9,96,30.33,7.0,NE,15.0,-,0.00,Snow,Light Snow,40,2013-10-04 04:53:00
11:53 PM,30.0,28.0,92,30.35,10.0,NE,13.8,-,0.00,,Overcast,50,2013-10-04 05:53:00